エンケ彗星

2P/Encke (2000)

English version
Home page
Updated on November 2, 2003

---------------------------------------------------------------------

・ プロフィール

・ 軌道要素

Epoch 2000 Sept. 13.0 TT = JDT 2451800.5
T 2000 Sept. 9.66111 TT                                 Muraoka
q   0.3395369            (2000.0)            P               Q
n   0.29843017     Peri.  186.48275     -0.94497665     -0.31524986
a   2.2177244      Node   334.60082     +0.30855015     -0.77013416
e   0.8468985      Incl.   11.75566     +0.10870110     -0.55453666
P   3.30
>From 165 observations 1982-1995, mean residual 0".89.  Nongravitational
   parameters A1 = -0.01 +/- 0.00, A2 = -0.0017 +/- 0.0000.

・ 星図

・ 光度変化

        H = 14.2  G = 0.15                [    ,-100]  (              〜2000年 6月 1日)
        m1 =  9.8 + 5 logΔ + 25   log r  [-100, -45]  (2000年 6月 1日〜2000年 7月26日)
        m1 = 10.3 + 5 logΔ +  7.0 log r  [ -45,  20]  (2000年 7月26日〜2000年 9月29日)
        m1 = 12.3 + 5 logΔ + 15.7 log r  [  20, 100]  (2000年 9月29日〜2000年12月18日)
        H = 14.2  G = 0.15                [ 100,    ]  (2000年12月18日〜              )

        ※ 緑色の曲線は、H = 14.2  G = 0.15 の光度曲線です。

---------------------------------------------------------------------

軌道要素は村岡健治氏の計算によるものです。
星図は StellaNavigator Ver.2.0 for Windows (アストロアーツ 編著 / アスキー出版局刊) で作成したものです。
光度グラフはComet for Windowsで作成したものです。

---------------------------------------------------------------------

Copyright(C) Seiichi Yoshida (comet@aerith.net). All rights reserved.